Sturgis, MI

11:29 AM EST on December 10, 2019 (GMT -0500)
Kirsch Municipal

Weather History for KIRS - October, 2019

Change the Weather History Date:

Wednesday, October 23, 2019

  Actual Average (KHAI) Record (KHAI)
Temperature  
Mean Temperature 49 °F -  
Max Temperature 59 °F 59 °F 82 °F (1963)
Min Temperature 39 °F 36 °F 21 °F (1969)
Degree Days  
Heating Degree Days 16    
Moisture  
Dew Point 33 °F    
Average Humidity 53    
Maximum Humidity 74    
Minimum Humidity 35    
Precipitation  
Precipitation 0.00 in - - ()
Sea Level Pressure  
Sea Level Pressure 29.92 in    
Wind  
Wind Speed 10 mph ()    
Max Wind Speed 16 mph    
Max Gust Speed 22 mph    
Visibility 10.0 miles    
Events      
Averages and records for this station are not official NWS values.
T = Trace of Precipitation, MM = Missing Value Source: Averaged Metar Reports

Daily Weather History Graph

Daily Weather History Graph

Search for Another Location

Airport or City:

Astronomy

Oct. 23, 2019 Rise Set
Actual Time 8:03 AM EDT 6:48 PM EDT
Civil Twilight 7:34 AM EDT 7:16 PM EDT
Nautical Twilight 7:02 AM EDT 7:49 PM EDT
Astronomical Twilight 6:29 AM EDT 8:21 PM EDT
Moon 2:14 AM EDT (10/23) 4:44 PM EDT (10/23)
Length of Visible Light 11h 42m
Length of Day
10h 45m
Waning Crescent, 27% of the Moon is Illuminated
Oct 23
Waning Crescent
Oct 27
New
Nov 4
First Quarter
Nov 12
Full
Nov 19
Last Quarter

Hourly Weather History & Observations

Time (EDT) Temp. Windchill Dew Point Humidity Pressure Visibility Wind Dir Wind Speed Gust Speed Precip Events Conditions
12:15 AM 49.5 °F - 35.8 °F 59% 29.79 in 10.0 mi WSW 10.4 mph - N/A   Overcast
12:20 AM 49.5 °F - 35.8 °F 59% 29.79 in 10.0 mi WSW 10.4 mph - N/A   Overcast
12:38 AM 49.6 °F - 36.0 °F 59% 29.79 in 10.0 mi WSW 9.2 mph 17.3 mph N/A   Overcast
12:56 AM 48.9 °F - 36.5 °F 62% 29.79 in 10.0 mi WSW 9.2 mph - N/A   Overcast
1:15 AM 48.0 °F - 36.3 °F 64% 29.79 in 10.0 mi WSW 8.1 mph 16.1 mph N/A   Scattered Clouds
1:16 AM 48.0 °F - 36.3 °F 64% 29.79 in 10.0 mi WSW 8.1 mph 16.1 mph N/A   Scattered Clouds
1:35 AM 47.3 °F - 36.1 °F 65% 29.80 in 10.0 mi WSW 9.2 mph - N/A   Clear
1:36 AM 47.3 °F - 36.1 °F 65% 29.80 in 10.0 mi WSW 10.4 mph - N/A   Clear
2:17 AM 45.7 °F 41.0 °F 35.4 °F 67% 29.80 in 10.0 mi WSW 9.2 mph - N/A   Clear
2:35 AM 45.5 °F 40.3 °F 34.3 °F 65% 29.81 in 10.0 mi WSW 10.4 mph - N/A   Clear
2:55 AM 45.3 °F 40.1 °F 33.3 °F 63% 29.81 in 10.0 mi WSW 10.4 mph - N/A   Clear
2:56 AM 45.5 °F 39.9 °F 33.3 °F 62% 29.81 in 10.0 mi WSW 11.5 mph - N/A   Clear
3:15 AM 44.6 °F 39.7 °F 32.5 °F 63% 29.81 in 10.0 mi WSW 9.2 mph - N/A   Clear
3:20 AM 44.6 °F 39.2 °F 32.2 °F 62% 29.81 in 10.0 mi WSW 10.4 mph - N/A   Clear
3:38 AM 43.9 °F 38.3 °F 32.0 °F 63% 29.82 in 10.0 mi WSW 10.4 mph - N/A   Clear
3:56 AM 43.9 °F 37.9 °F 31.6 °F 62% 29.83 in 10.0 mi WSW 11.5 mph - N/A   Clear
4:15 AM 43.5 °F 37.9 °F 31.1 °F 62% 29.82 in 10.0 mi WSW 10.4 mph - N/A   Clear
4:16 AM 43.3 °F 38.1 °F 31.1 °F 62% 29.82 in 10.0 mi WSW 9.2 mph - N/A   Clear
4:35 AM 43.0 °F 37.2 °F 31.1 °F 63% 29.82 in 10.0 mi WSW 10.4 mph 16.1 mph N/A   Clear
4:36 AM 42.8 °F 37.0 °F 31.1 °F 63% 29.82 in 10.0 mi WSW 10.4 mph 16.1 mph N/A   Clear
4:59 AM 42.8 °F 36.6 °F 31.1 °F 63% 29.83 in 10.0 mi WSW 11.5 mph 17.3 mph N/A   Clear
5:17 AM 42.3 °F 36.3 °F 30.9 °F 64% 29.83 in 10.0 mi WSW 10.4 mph - N/A   Clear
5:35 AM 41.4 °F 35.2 °F 31.1 °F 67% 29.84 in 10.0 mi SW 10.4 mph - N/A   Clear
5:36 AM 41.4 °F 35.2 °F 31.1 °F 67% 29.84 in 10.0 mi SW 10.4 mph - N/A   Clear
5:55 AM 40.5 °F 34.6 °F 31.6 °F 71% 29.85 in 10.0 mi SW 9.2 mph - N/A   Clear
5:56 AM 40.5 °F 34.6 °F 31.6 °F 71% 29.85 in 10.0 mi SW 9.2 mph - N/A   Clear
6:15 AM 40.3 °F 34.4 °F 31.8 °F 72% 29.86 in 10.0 mi SW 9.2 mph - N/A   Clear
6:38 AM 40.5 °F 34.6 °F 31.6 °F 71% 29.87 in 10.0 mi WSW 9.2 mph - N/A   Clear
6:56 AM 40.5 °F 34.1 °F 31.5 °F 70% 29.88 in 10.0 mi WSW 10.4 mph - N/A   Clear
7:15 AM 41.0 °F 34.3 °F 31.1 °F 68% 29.90 in 10.0 mi WSW 11.5 mph 16.1 mph N/A   Clear
7:16 AM 41.0 °F 33.9 °F 31.1 °F 68% 29.90 in 10.0 mi WSW 12.7 mph 16.1 mph N/A   Clear
7:35 AM 40.3 °F 33.9 °F 31.1 °F 70% 29.91 in 10.0 mi SW 10.4 mph - N/A   Clear
8:17 AM 39.2 °F 34.2 °F 31.5 °F 74% 29.92 in 10.0 mi WSW 6.9 mph - N/A   Clear
8:35 AM 40.3 °F 35.5 °F 31.6 °F 71% 29.92 in 10.0 mi WSW 6.9 mph - N/A   Clear
8:36 AM 40.3 °F 35.5 °F 31.6 °F 71% 29.92 in 10.0 mi SW 6.9 mph - N/A   Clear
8:55 AM 41.2 °F 35.5 °F 32.0 °F 70% 29.94 in 10.0 mi SW 9.2 mph - N/A   Clear
8:56 AM 41.2 °F 36.0 °F 32.0 °F 70% 29.94 in 10.0 mi SW 8.1 mph - N/A   Clear
9:15 AM 42.4 °F 37.0 °F 32.0 °F 67% 29.94 in 10.0 mi WSW 9.2 mph - N/A   Clear
9:38 AM 44.2 °F 39.2 °F 31.8 °F 62% 29.95 in 10.0 mi WSW 9.2 mph - N/A   Clear
9:56 AM 46.0 °F 40.2 °F 32.0 °F 58% 29.95 in 10.0 mi SW 12.7 mph 16.1 mph N/A   Clear
10:15 AM 47.5 °F - 32.2 °F 55% 29.96 in 10.0 mi SW 15.0 mph - N/A   Clear
10:16 AM 47.7 °F - 32.2 °F 55% 29.96 in 10.0 mi SW 13.8 mph - N/A   Clear
10:35 AM 48.7 °F - 32.2 °F 53% 29.97 in 10.0 mi SW 16.1 mph 19.6 mph N/A   Clear
10:59 AM 49.8 °F - 32.9 °F 52% 29.97 in 10.0 mi SW 13.8 mph - N/A   Clear
11:17 AM 50.7 °F - 32.7 °F 50% 29.97 in 10.0 mi SW 12.7 mph 18.4 mph N/A   Clear
11:35 AM 52.0 °F - 32.4 °F 47% 29.97 in 10.0 mi SW 12.7 mph 19.6 mph N/A   Clear
11:55 AM 52.9 °F - 32.4 °F 46% 29.97 in 10.0 mi SW 12.7 mph - N/A   Clear
12:15 PM 54.5 °F - 31.1 °F 41% 29.98 in 10.0 mi WSW 12.7 mph 17.3 mph N/A   Clear
12:38 PM 55.2 °F - 31.5 °F 40% 29.98 in 10.0 mi SW 13.8 mph 20.7 mph N/A   Clear
12:56 PM 55.9 °F - 31.5 °F 39% 29.98 in 10.0 mi SW 13.8 mph 20.7 mph N/A   Clear
1:15 PM 56.3 °F - 31.6 °F 39% 29.98 in 10.0 mi SW 12.7 mph - N/A   Clear
1:35 PM 57.7 °F - 32.0 °F 38% 29.97 in 10.0 mi WSW 10.4 mph 16.1 mph N/A   Scattered Clouds
1:36 PM 57.7 °F - 32.4 °F 38% 29.97 in 10.0 mi WSW 11.5 mph 17.3 mph N/A   Scattered Clouds
1:58 PM 57.7 °F - 32.5 °F 39% 29.96 in 10.0 mi WSW 13.8 mph 19.6 mph N/A   Mostly Cloudy
2:17 PM 57.6 °F - 32.0 °F 38% 29.97 in 10.0 mi WSW 12.7 mph 21.9 mph N/A   Overcast
2:35 PM 57.0 °F - 32.7 °F 40% 29.98 in 10.0 mi WSW 12.7 mph 18.4 mph N/A   Overcast
2:36 PM 56.8 °F - 32.9 °F 40% 29.97 in 10.0 mi WSW 15.0 mph 18.4 mph N/A   Overcast
2:55 PM 55.8 °F - 32.5 °F 41% 29.97 in 10.0 mi SW 13.8 mph - N/A   Overcast
2:56 PM 55.8 °F - 32.4 °F 41% 29.97 in 10.0 mi SW 13.8 mph - N/A   Overcast
3:15 PM 56.7 °F - 34.2 °F 43% 29.97 in 10.0 mi SW 13.8 mph - N/A   Overcast
3:20 PM 56.5 °F - 33.3 °F 42% 29.97 in 10.0 mi SW 10.4 mph - N/A   Overcast
3:38 PM 56.5 °F - 32.7 °F 41% 29.96 in 10.0 mi WSW 11.5 mph - N/A   Overcast
3:56 PM 58.1 °F - 32.9 °F 39% 29.96 in 10.0 mi WSW 11.5 mph - N/A   Mostly Cloudy
4:15 PM 58.3 °F - 32.4 °F 38% 29.96 in 10.0 mi SW 13.8 mph - N/A   Scattered Clouds
4:16 PM 58.3 °F - 32.5 °F 38% 29.96 in 10.0 mi WSW 13.8 mph - N/A   Scattered Clouds
4:36 PM 59.0 °F - 32.5 °F 37% 29.96 in 10.0 mi WSW 10.4 mph - N/A   Clear
4:59 PM 59.9 °F - 32.2 °F 35% 29.96 in 10.0 mi WSW 9.2 mph - N/A   Clear
5:17 PM 59.5 °F - 32.7 °F 36% 29.95 in 10.0 mi SW 5.8 mph - N/A   Scattered Clouds
5:35 PM 56.3 °F - 35.4 °F 46% 29.94 in 10.0 mi SW 4.6 mph - N/A   Scattered Clouds
5:36 PM 56.3 °F - 35.6 °F 46% 29.94 in 10.0 mi SW 4.6 mph - N/A   Mostly Cloudy
5:55 PM 56.8 °F - 36.5 °F 47% 29.95 in 10.0 mi Calm Calm - N/A   Overcast
6:15 PM 57.2 °F - 36.5 °F 46% 29.95 in 10.0 mi Calm Calm - N/A   Overcast
6:38 PM 55.4 °F - 39.6 °F 55% 29.96 in 10.0 mi Calm Calm - N/A   Overcast
6:56 PM 53.8 °F - 40.1 °F 60% 29.96 in 10.0 mi Calm Calm - N/A   Overcast
7:15 PM 53.4 °F - 40.3 °F 61% 29.96 in 10.0 mi SE 3.5 mph - N/A   Overcast
7:35 PM 55.6 °F - 37.2 °F 50% 29.96 in 10.0 mi South 5.8 mph - N/A   Overcast
8:17 PM 56.3 °F - 34.9 °F 45% 29.96 in 10.0 mi South 9.2 mph - N/A   Mostly Cloudy
8:35 PM 56.1 °F - 34.0 °F 43% 29.96 in 10.0 mi South 8.1 mph - N/A   Scattered Clouds
8:55 PM 55.8 °F - 33.8 °F 44% 29.96 in 10.0 mi South 8.1 mph - N/A   Clear
9:15 PM 56.5 °F - 33.4 °F 42% 29.96 in 10.0 mi SSW 13.8 mph 18.4 mph N/A   Clear
9:19 PM 56.7 °F - 33.3 °F 41% 29.96 in 10.0 mi SSW 13.8 mph 18.4 mph N/A   Clear
9:38 PM 56.3 °F - 33.6 °F 42% 29.97 in 10.0 mi SSW 13.8 mph - N/A   Clear
9:56 PM 56.5 °F - 33.8 °F 42% 29.98 in 10.0 mi SSW 12.7 mph - N/A   Scattered Clouds
10:15 PM 56.5 °F - 33.6 °F 42% 29.98 in 10.0 mi SSW 15.0 mph 19.6 mph N/A   Overcast
10:35 PM 56.8 °F - 33.6 °F 42% 29.99 in 10.0 mi SSW 12.7 mph - N/A   Overcast
10:36 PM 56.8 °F - 33.8 °F 42% 29.99 in 10.0 mi SSW 12.7 mph - N/A   Overcast
10:59 PM 56.8 °F - 33.4 °F 41% 29.99 in 10.0 mi SSW 15.0 mph - N/A   Overcast
11:17 PM 56.7 °F - 33.6 °F 42% 29.98 in 10.0 mi SSW 16.1 mph 19.6 mph N/A   Overcast
11:35 PM 56.5 °F - 34.0 °F 43% 29.98 in 10.0 mi SSW 11.5 mph 16.1 mph N/A   Overcast
11:36 PM 56.5 °F - 34.0 °F 43% 29.98 in 10.0 mi SSW 12.7 mph 16.1 mph N/A   Overcast
11:55 PM 57.2 °F - 33.1 °F 40% 29.97 in 10.0 mi SSW 13.8 mph 19.6 mph N/A   Overcast
11:56 PM 57.2 °F - 33.1 °F 40% 29.97 in 10.0 mi SSW 12.7 mph 19.6 mph N/A   Overcast